TimeEST,TemperatureF,Dew PointF,Humidity,Sea Level PressureIn,VisibilityMPH,Wind Direction,Wind SpeedMPH,Gust SpeedMPH,PrecipitationIn,Events,Conditions,WindDirDegrees,DateUTC
12:53 AM,46.0,42.1,86,30.40,7.0,Calm,Calm,-,N/A,,Overcast,0,2005-01-01 05:53:00
1:53 AM,46.0,43.0,89,30.40,10.0,Calm,Calm,-,N/A,,Overcast,0,2005-01-01 06:53:00
2:53 AM,46.9,43.0,86,30.40,10.0,Calm,Calm,-,N/A,,Overcast,0,2005-01-01 07:53:00
3:53 AM,46.0,43.0,89,30.40,10.0,North,3.5,-,N/A,,Mostly Cloudy,350,2005-01-01 08:53:00
4:53 AM,43.0,39.9,89,30.41,10.0,Calm,Calm,-,N/A,,Scattered Clouds,0,2005-01-01 09:53:00
5:53 AM,42.1,39.9,92,30.42,10.0,Calm,Calm,-,N/A,,Overcast,0,2005-01-01 10:53:00
6:53 AM,39.9,39.0,97,30.44,10.0,Calm,Calm,-,N/A,,Scattered Clouds,0,2005-01-01 11:53:00
7:53 AM,39.9,39.0,97,30.46,7.0,Calm,Calm,-,N/A,,Partly Cloudy,0,2005-01-01 12:53:00
8:53 AM,45.0,42.1,90,30.48,10.0,Calm,Calm,-,N/A,,Scattered Clouds,0,2005-01-01 13:53:00
9:53 AM,50.0,44.1,80,30.50,10.0,Calm,Calm,-,N/A,,Overcast,0,2005-01-01 14:53:00
10:53 AM,53.1,44.1,71,30.51,10.0,Calm,Calm,-,N/A,,Overcast,0,2005-01-01 15:53:00
11:53 AM,57.0,46.0,67,30.48,10.0,Calm,Calm,-,N/A,,Partly Cloudy,0,2005-01-01 16:53:00
12:53 PM,61.0,46.0,58,30.44,10.0,Calm,Calm,-,N/A,,Partly Cloudy,0,2005-01-01 17:53:00
1:53 PM,63.0,46.9,56,30.41,10.0,Variable,3.5,-,N/A,,Partly Cloudy,0,2005-01-01 18:53:00
2:53 PM,64.0,45.0,50,30.40,10.0,Calm,Calm,-,N/A,,Partly Cloudy,0,2005-01-01 19:53:00
3:53 PM,64.0,45.0,50,30.40,10.0,Calm,Calm,-,N/A,,Mostly Cloudy,0,2005-01-01 20:53:00
4:53 PM,62.1,45.0,53,30.41,10.0,Calm,Calm,-,N/A,,Mostly Cloudy,0,2005-01-01 21:53:00
5:53 PM,55.0,45.0,69,30.42,10.0,Calm,Calm,-,N/A,,Scattered Clouds,0,2005-01-01 22:53:00
6:53 PM,51.1,44.1,77,30.42,10.0,North,3.5,-,N/A,,Clear,360,2005-01-01 23:53:00
7:53 PM,48.9,43.0,80,30.43,10.0,Calm,Calm,-,N/A,,Clear,0,2005-01-02 00:53:00
8:53 PM,44.1,41.0,89,30.44,9.0,Calm,Calm,-,N/A,,Clear,0,2005-01-02 01:53:00
9:53 PM,46.0,42.1,86,30.43,9.0,Calm,Calm,-,N/A,,Clear,0,2005-01-02 02:53:00
10:53 PM,44.1,41.0,89,30.43,7.0,Calm,Calm,-,N/A,,Clear,0,2005-01-02 03:53:00
11:53 PM,44.1,41.0,89,30.42,10.0,Calm,Calm,-,N/A,,Clear,0,2005-01-02 04:53:00